When you browse on this site, cookies collect data to enhance your experience and personalize the content and advertising you see.
Visit our Privacy Policy to learn more. By continuing to use the site, you agree to this use of cookies and data.
  • In Switzerland
  • List of Countries
  • For 7 days
  • Water Temperature
  • Satellite Maps
  • Weather Map
  • Weather Widgets
  • user-avatar
    Login

    Hourly Weather Plavs'ke

    Today, 21 April, Sunday

    Time Temperature Precipitation Wind Pressure Humidity
    00:00 +4°C° 0 mm 3 mps 765 mmHg 47%
    01:00 +4°C° 0 mm 3 mps 765 mmHg 48%
    02:00 +4°C° 0 mm 3 mps 765 mmHg 50%
    03:00 +4°C° 0 mm 3 mps 765 mmHg 52%
    04:00 +3°C° 0 mm 3 mps 765 mmHg 54%
    05:00 +3°C° 0 mm 3 mps 765 mmHg 57%
    06:00 +5°C° 0 mm 4 mps 765 mmHg 53%
    07:00 +7°C° 0 mm 4 mps 765 mmHg 49%
    08:00 +10°C° 0 mm 4 mps 765 mmHg 46%
    09:00 +10°C° 0 mm 5 mps 765 mmHg 41%
    10:00 +12°C° 0 mm 5 mps 765 mmHg 36%
    11:00 +13°C° 0 mm 5 mps 765 mmHg 32%
    12:00 +13°C° 0 mm 5 mps 765 mmHg 32%
    13:00 +14°C° 0 mm 5 mps 765 mmHg 32%
    14:00 +14°C° 0 mm 5 mps 764 mmHg 32%
    15:00 +13°C° 0 mm 5 mps 764 mmHg 33%
    16:00 +13°C° 0 mm 4 mps 764 mmHg 34%
    17:00 +13°C° 0 mm 4 mps 764 mmHg 35%
    18:00 +11°C° 0 mm 3 mps 764 mmHg 39%
    19:00 +10°C° 0 mm 2 mps 765 mmHg 42%
    20:00 +8°C° 0 mm 2 mps 765 mmHg 45%
    21:00 +8°C° 0 mm 2 mps 765 mmHg 46%
    22:00 +8°C° 0 mm 3 mps 765 mmHg 47%
    23:00 +8°C° 0 mm 3 mps 765 mmHg 48%

    Tomorrow, 22 April, Monday

    Time Temperature Precipitation Wind Pressure Humidity
    00:00 +7°C° 0 mm 3 mps 765 mmHg 50%
    01:00 +7°C° 0 mm 3 mps 765 mmHg 52%
    02:00 +6°C° 0 mm 4 mps 765 mmHg 54%
    03:00 +6°C° 0 mm 4 mps 765 mmHg 56%
    04:00 +5°C° 0 mm 4 mps 765 mmHg 59%
    05:00 +4°C° 0 mm 4 mps 765 mmHg 61%
    06:00 +6°C° 0 mm 4 mps 765 mmHg 56%
    07:00 +8°C° 0 mm 5 mps 765 mmHg 51%
    08:00 +10°C° 0 mm 6 mps 766 mmHg 46%
    09:00 +13°C° 0 mm 6 mps 766 mmHg 42%
    10:00 +14°C° 0 mm 7 mps 766 mmHg 37%
    11:00 +15°C° 0 mm 7 mps 766 mmHg 33%
    12:00 +15°C° 0 mm 7 mps 766 mmHg 33%
    13:00 +15°C° 0 mm 7 mps 766 mmHg 32%
    14:00 +15°C° 0 mm 7 mps 766 mmHg 32%
    15:00 +15°C° 0 mm 6 mps 766 mmHg 34%
    16:00 +14°C° 0 mm 6 mps 766 mmHg 35%
    17:00 +14°C° 0 mm 5 mps 766 mmHg 37%
    18:00 +12°C° 0 mm 4 mps 766 mmHg 41%
    19:00 +11°C° 0 mm 3 mps 766 mmHg 44%
    20:00 +10°C° 0 mm 2 mps 767 mmHg 48%
    21:00 +9°C° 0 mm 2 mps 767 mmHg 49%
    22:00 +9°C° 0 mm 2 mps 767 mmHg 50%
    23:00 +9°C° 0 mm 3 mps 767 mmHg 51%

    Day after tomorrow, 23 April, Tuesday

    Time Temperature Precipitation Wind Pressure Humidity
    00:00 +8°C° 0 mm 3 mps 767 mmHg 54%
    01:00 +8°C° 0 mm 3 mps 767 mmHg 56%
    02:00 +8°C° 0 mm 3 mps 767 mmHg 58%
    03:00 +8°C° 0 mm 3 mps 768 mmHg 60%
    04:00 +7°C° 0 mm 3 mps 768 mmHg 62%
    05:00 +7°C° 0 mm 3 mps 768 mmHg 63%
    06:00 +9°C° 0 mm 3 mps 768 mmHg 59%
    07:00 +11°C° 0 mm 3 mps 769 mmHg 54%
    08:00 +13°C° 0 mm 4 mps 769 mmHg 49%
    09:00 +14°C° 0 mm 4 mps 769 mmHg 44%
    10:00 +15°C° 0 mm 4 mps 769 mmHg 40%
    11:00 +17°C° 0 mm 4 mps 769 mmHg 35%
    12:00 +17°C° 0 mm 4 mps 769 mmHg 35%
    13:00 +17°C° 0 mm 4 mps 769 mmHg 35%
    14:00 +17°C° 0 mm 4 mps 769 mmHg 35%
    15:00 +17°C° 0 mm 4 mps 769 mmHg 36%
    16:00 +16°C° 0 mm 3 mps 769 mmHg 37%
    17:00 +16°C° 0 mm 3 mps 769 mmHg 38%
    18:00 +13°C° 0 mm 3 mps 769 mmHg 40%
    19:00 +13°C° 0 mm 2 mps 769 mmHg 42%
    20:00 +10°C° 0 mm 2 mps 770 mmHg 44%
    21:00 +10°C° 0 mm 2 mps 770 mmHg 44%
    22:00 +9°C° 0 mm 2 mps 770 mmHg 44%
    23:00 +9°C° 0 mm 2 mps 770 mmHg 43%

    24 April, Wednesday

    Time Temperature Precipitation Wind Pressure Humidity
    00:00 +9°C° 0 mm 2 mps 770 mmHg 44%
    01:00 +9°C° 0 mm 2 mps 770 mmHg 45%
    02:00 +8°C° 0 mm 2 mps 770 mmHg 46%
    03:00 +8°C° 0 mm 3 mps 770 mmHg 49%
    04:00 +8°C° 0 mm 3 mps 770 mmHg 52%
    05:00 +7°C° 0 mm 3 mps 770 mmHg 54%
    06:00 +10°C° 0 mm 3 mps 770 mmHg 52%
    07:00 +12°C° 0 mm 3 mps 770 mmHg 49%
    08:00 +14°C° 0 mm 3 mps 770 mmHg 46%
    09:00 +16°C° 0 mm 3 mps 770 mmHg 43%
    10:00 +17°C° 0 mm 3 mps 770 mmHg 40%
    11:00 +18°C° 0 mm 3 mps 770 mmHg 37%
    12:00 +18°C° 0 mm 3 mps 770 mmHg 37%
    13:00 +18°C° 0 mm 3 mps 770 mmHg 37%
    14:00 +18°C° 0 mm 3 mps 770 mmHg 37%
    15:00 +18°C° 0 mm 3 mps 769 mmHg 38%
    16:00 +17°C° 0 mm 3 mps 769 mmHg 40%
    17:00 +17°C° 0 mm 3 mps 769 mmHg 41%
    18:00 +15°C° 0 mm 2 mps 769 mmHg 44%
    19:00 +14°C° 0 mm 2 mps 769 mmHg 46%
    20:00 +12°C° 0 mm 2 mps 770 mmHg 48%
    21:00 +12°C° 0 mm 2 mps 770 mmHg 49%
    22:00 +10°C° 0 mm 2 mps 770 mmHg 50%
    23:00 +10°C° 0 mm 2 mps 770 mmHg 50%

    25 April, Thursday

    Time Temperature Precipitation Wind Pressure Humidity
    00:00 +10°C° 0 mm 2 mps 770 mmHg 53%
    01:00 +10°C° 0 mm 2 mps 770 mmHg 55%
    02:00 +9°C° 0 mm 2 mps 769 mmHg 58%
    03:00 +9°C° 0 mm 2 mps 769 mmHg 60%
    04:00 +9°C° 0 mm 2 mps 769 mmHg 62%
    05:00 +9°C° 0 mm 2 mps 769 mmHg 64%
    06:00 +12°C° 0 mm 2 mps 769 mmHg 59%
    07:00 +13°C° 0 mm 3 mps 769 mmHg 54%
    08:00 +17°C° 0 mm 3 mps 769 mmHg 49%
    09:00 +18°C° 0 mm 3 mps 769 mmHg 46%
    10:00 +19°C° 0 mm 2 mps 769 mmHg 43%
    11:00 +21°C° 0 mm 2 mps 769 mmHg 39%
    12:00 +21°C° 0 mm 2 mps 769 mmHg 40%
    13:00 +21°C° 0 mm 2 mps 768 mmHg 41%
    14:00 +21°C° 0 mm 2 mps 768 mmHg 41%
    15:00 +22°C° 0 mm 1 mps 768 mmHg 43%
    16:00 +22°C° 0 mm 1 mps 768 mmHg 44%
    17:00 +22°C° 0 mm 1 mps 768 mmHg 46%
    18:00 +20°C° 0 mm 1 mps 768 mmHg 50%
    19:00 +18°C° 0 mm 1 mps 768 mmHg 54%
    20:00 +16°C° 0 mm 1 mps 767 mmHg 58%
    21:00 +15°C° 0 mm 1 mps 767 mmHg 60%
    22:00 +15°C° 0 mm 1 mps 767 mmHg 62%
    23:00 +13°C° 0 mm 0 mps 767 mmHg 63%

    26 April, Friday

    Time Temperature Precipitation Wind Pressure Humidity
    00:00 +14°C° 0 mm 1 mps 767 mmHg 65%
    01:00 +13°C° 0 mm 1 mps 767 mmHg 66%
    02:00 +13°C° 0 mm 1 mps 766 mmHg 68%
    03:00 +13°C° 0 mm 1 mps 766 mmHg 69%
    04:00 +13°C° 0 mm 1 mps 766 mmHg 71%
    05:00 +13°C° 0 mm 1 mps 766 mmHg 72%
    06:00 +15°C° 0 mm 2 mps 766 mmHg 67%
    07:00 +16°C° 0 mm 2 mps 766 mmHg 62%
    08:00 +18°C° 0 mm 3 mps 766 mmHg 56%
    09:00 +19°C° 0 mm 3 mps 766 mmHg 53%
    10:00 +20°C° 0 mm 4 mps 766 mmHg 50%
    11:00 +21°C° 0 mm 4 mps 765 mmHg 47%
    12:00 +21°C° 0 mm 4 mps 765 mmHg 46%
    13:00 +21°C° 0 mm 5 mps 765 mmHg 46%
    14:00 +21°C° 0 mm 5 mps 764 mmHg 45%
    15:00 +20°C° 0 mm 5 mps 764 mmHg 47%
    16:00 +20°C° 0 mm 4 mps 764 mmHg 48%
    17:00 +19°C° 0 mm 4 mps 763 mmHg 50%
    18:00 +17°C° 0 mm 4 mps 763 mmHg 55%
    19:00 +16°C° 0 mm 3 mps 763 mmHg 60%
    20:00 +14°C° 0 mm 2 mps 763 mmHg 65%
    21:00 +14°C° 0 mm 2 mps 763 mmHg 65%
    22:00 +13°C° 0 mm 2 mps 763 mmHg 66%
    23:00 +13°C° 0 mm 2 mps 763 mmHg 67%
    Show more